Year,Month,Day,Hour,Minute,Value (Times are PST for temperature in C)
2012,03,15,00,00,4.70
2012,03,15,00,01,4.70
2012,03,15,00,02,4.70
2012,03,15,00,03,4.60
2012,03,15,00,04,4.60
2012,03,15,00,05,4.60
2012,03,15,00,06,4.60
2012,03,15,00,07,4.60
2012,03,15,00,08,4.60
2012,03,15,00,09,4.60
2012,03,15,00,10,4.60
2012,03,15,00,11,4.70
2012,03,15,00,12,4.70
2012,03,15,00,13,4.70
2012,03,15,00,14,4.70
2012,03,15,00,15,4.70
2012,03,15,00,16,4.70
2012,03,15,00,17,4.70
2012,03,15,00,18,4.70
2012,03,15,00,19,4.70
2012,03,15,00,20,4.70
2012,03,15,00,21,4.70
2012,03,15,00,22,4.70
2012,03,15,00,23,4.70
2012,03,15,00,24,4.70
2012,03,15,00,25,4.70
2012,03,15,00,26,4.70
2012,03,15,00,27,4.70
2012,03,15,00,28,4.70
2012,03,15,00,29,4.70
2012,03,15,00,30,4.80
2012,03,15,00,31,4.80
2012,03,15,00,32,4.80
2012,03,15,00,33,4.80
2012,03,15,00,34,4.80
2012,03,15,00,35,4.80
2012,03,15,00,36,4.80
2012,03,15,00,37,4.80
2012,03,15,00,38,4.80
2012,03,15,00,39,4.80
2012,03,15,00,40,4.80
2012,03,15,00,41,4.80
2012,03,15,00,42,4.80
2012,03,15,00,43,4.80
2012,03,15,00,44,4.80
2012,03,15,00,45,4.80
2012,03,15,00,46,4.80
2012,03,15,00,47,4.80
2012,03,15,00,48,4.90
2012,03,15,00,49,4.90
2012,03,15,00,50,4.90
2012,03,15,00,51,4.90
2012,03,15,00,52,4.90
2012,03,15,00,53,4.90
2012,03,15,00,54,4.90
2012,03,15,00,55,4.90
2012,03,15,00,56,4.90
2012,03,15,00,57,4.90
2012,03,15,00,58,4.90
2012,03,15,00,59,4.90
2012,03,15,01,00,4.90
2012,03,15,01,01,4.90
2012,03,15,01,02,4.90
2012,03,15,01,03,4.90
2012,03,15,01,04,4.90
2012,03,15,01,05,4.90
2012,03,15,01,06,4.90
2012,03,15,01,07,4.90
2012,03,15,01,08,4.90
2012,03,15,01,09,4.90
2012,03,15,01,10,4.90
2012,03,15,01,11,4.90
2012,03,15,01,12,4.90
2012,03,15,01,13,5.00
2012,03,15,01,14,5.00
2012,03,15,01,15,5.00
2012,03,15,01,16,5.00
2012,03,15,01,17,5.00
2012,03,15,01,18,5.00
2012,03,15,01,19,5.00
2012,03,15,01,20,4.90
2012,03,15,01,21,4.80
2012,03,15,01,22,4.80
2012,03,15,01,23,4.80
2012,03,15,01,24,4.70
2012,03,15,01,25,4.70
2012,03,15,01,26,4.70
2012,03,15,01,27,4.70
2012,03,15,01,28,4.60
2012,03,15,01,29,4.60
2012,03,15,01,30,4.60
2012,03,15,01,31,4.60
2012,03,15,01,32,4.60
2012,03,15,01,33,4.60
2012,03,15,01,34,4.50
2012,03,15,01,35,4.50
2012,03,15,01,36,4.60
2012,03,15,01,37,4.50
2012,03,15,01,38,4.50
2012,03,15,01,39,4.50
2012,03,15,01,40,4.50
2012,03,15,01,41,4.50
2012,03,15,01,42,4.50
2012,03,15,01,43,4.50
2012,03,15,01,44,4.50
2012,03,15,01,45,4.50
2012,03,15,01,46,4.50
2012,03,15,01,47,4.50
2012,03,15,01,48,4.50
2012,03,15,01,49,4.50
2012,03,15,01,50,4.50
2012,03,15,01,51,4.50
2012,03,15,01,52,4.50
2012,03,15,01,53,4.50
2012,03,15,01,54,4.50
2012,03,15,01,55,4.50
2012,03,15,01,56,4.50
2012,03,15,01,57,4.40
2012,03,15,01,58,4.40
2012,03,15,01,59,4.50
2012,03,15,02,00,4.50
2012,03,15,02,01,4.50
2012,03,15,02,02,4.50
2012,03,15,02,03,4.50
2012,03,15,02,04,4.50
2012,03,15,02,05,4.50
2012,03,15,02,06,4.50
2012,03,15,02,07,4.50
2012,03,15,02,08,4.50
2012,03,15,02,09,4.50
2012,03,15,02,10,4.50
2012,03,15,02,11,4.50
2012,03,15,02,12,4.50
2012,03,15,02,13,4.50
2012,03,15,02,14,4.60
2012,03,15,02,15,4.60
2012,03,15,02,16,4.60
2012,03,15,02,17,4.60
2012,03,15,02,18,4.60
2012,03,15,02,19,4.60
2012,03,15,02,20,4.60
2012,03,15,02,21,4.60
2012,03,15,02,22,4.60
2012,03,15,02,23,4.60
2012,03,15,02,24,4.60
2012,03,15,02,25,4.60
2012,03,15,02,26,4.60
2012,03,15,02,27,4.60
2012,03,15,02,28,4.60
2012,03,15,02,29,4.60
2012,03,15,02,30,4.60
2012,03,15,02,31,4.60
2012,03,15,02,32,4.60
2012,03,15,02,33,4.60
2012,03,15,02,34,4.60
2012,03,15,02,35,4.60
2012,03,15,02,36,4.60
2012,03,15,02,37,4.60
2012,03,15,02,38,4.60
2012,03,15,02,39,4.60
2012,03,15,02,40,4.60
2012,03,15,02,41,4.70
2012,03,15,02,42,4.70
2012,03,15,02,43,4.70
2012,03,15,02,44,4.70
2012,03,15,02,45,4.70
2012,03,15,02,46,4.70
2012,03,15,02,47,4.70
2012,03,15,02,48,4.70
2012,03,15,02,49,4.70
2012,03,15,02,50,4.70
2012,03,15,02,51,4.70
2012,03,15,02,52,4.70
2012,03,15,02,53,4.70
2012,03,15,02,54,4.70
2012,03,15,02,55,4.70
2012,03,15,02,56,4.70
2012,03,15,02,57,4.70
2012,03,15,02,58,4.70
2012,03,15,02,59,4.70
2012,03,15,03,00,4.70
2012,03,15,03,01,4.70
2012,03,15,03,02,4.70
2012,03,15,03,03,4.70
2012,03,15,03,04,4.70
2012,03,15,03,05,4.70
2012,03,15,03,06,4.70
2012,03,15,03,07,4.70
2012,03,15,03,08,4.70
2012,03,15,03,09,4.70
2012,03,15,03,10,4.70
2012,03,15,03,11,4.70
2012,03,15,03,12,4.70
2012,03,15,03,13,4.70
2012,03,15,03,14,4.70
2012,03,15,03,15,4.70
2012,03,15,03,16,4.70
2012,03,15,03,17,4.70
2012,03,15,03,18,4.80
2012,03,15,03,19,4.80
2012,03,15,03,20,4.80
2012,03,15,03,21,4.80
2012,03,15,03,22,4.80
2012,03,15,03,23,4.80
2012,03,15,03,24,4.80
2012,03,15,03,25,4.80
2012,03,15,03,26,4.80
2012,03,15,03,27,4.80
2012,03,15,03,28,4.80
2012,03,15,03,29,4.80
2012,03,15,03,30,4.80
2012,03,15,03,31,4.80
2012,03,15,03,32,4.80
2012,03,15,03,33,4.80
2012,03,15,03,34,4.80
2012,03,15,03,35,4.80
2012,03,15,03,36,4.80
2012,03,15,03,37,4.80
2012,03,15,03,38,4.80
2012,03,15,03,39,4.80
2012,03,15,03,40,4.90
2012,03,15,03,41,4.90
2012,03,15,03,42,4.90
2012,03,15,03,43,4.90
2012,03,15,03,44,4.90
2012,03,15,03,45,4.90
2012,03,15,03,46,4.90
2012,03,15,03,47,4.90
2012,03,15,03,48,4.90
2012,03,15,03,49,4.90
2012,03,15,03,50,4.90
2012,03,15,03,51,4.90
2012,03,15,03,52,5.00
2012,03,15,03,53,5.00
2012,03,15,03,54,5.00
2012,03,15,03,55,5.00
2012,03,15,03,56,5.00
2012,03,15,03,57,5.00
2012,03,15,03,58,5.00
2012,03,15,03,59,5.00
2012,03,15,04,00,5.10
2012,03,15,04,01,5.10
2012,03,15,04,02,5.10
2012,03,15,04,03,5.10
2012,03,15,04,04,5.10
2012,03,15,04,05,5.10
2012,03,15,04,06,5.10
2012,03,15,04,07,5.10
2012,03,15,04,08,5.10
2012,03,15,04,09,5.10
2012,03,15,04,10,5.20
2012,03,15,04,11,5.20
2012,03,15,04,12,5.20
2012,03,15,04,13,5.30
2012,03,15,04,14,5.30
2012,03,15,04,15,5.30
2012,03,15,04,16,5.30
2012,03,15,04,17,5.30
2012,03,15,04,18,5.30
2012,03,15,04,19,5.40
2012,03,15,04,20,5.40
2012,03,15,04,21,5.40
2012,03,15,04,22,5.40
2012,03,15,04,23,5.40
2012,03,15,04,24,5.40
2012,03,15,04,25,5.40
2012,03,15,04,26,5.40
2012,03,15,04,27,5.40
2012,03,15,04,28,5.40
2012,03,15,04,29,5.40
2012,03,15,04,30,5.50
2012,03,15,04,31,5.50
2012,03,15,04,32,5.50
2012,03,15,04,33,5.50
2012,03,15,04,34,5.50
2012,03,15,04,35,5.50
2012,03,15,04,36,5.50
2012,03,15,04,37,5.60
2012,03,15,04,38,5.60
2012,03,15,04,39,5.60
2012,03,15,04,40,5.60
2012,03,15,04,41,5.60
2012,03,15,04,42,5.60
2012,03,15,04,43,5.60
2012,03,15,04,44,5.60
2012,03,15,04,45,5.60
2012,03,15,04,46,5.70
2012,03,15,04,47,5.70
2012,03,15,04,48,5.70
2012,03,15,04,49,5.70
2012,03,15,04,50,5.70
2012,03,15,04,51,5.70
2012,03,15,04,52,5.70
2012,03,15,04,53,5.70
2012,03,15,04,54,5.70
2012,03,15,04,55,5.80
2012,03,15,04,56,5.80
2012,03,15,04,57,5.80
2012,03,15,04,58,5.80
2012,03,15,04,59,5.80
2012,03,15,05,00,5.80
2012,03,15,05,01,5.80
2012,03,15,05,02,5.80
2012,03,15,05,03,5.80
2012,03,15,05,04,5.80
2012,03,15,05,05,5.80
2012,03,15,05,06,5.90
2012,03,15,05,07,5.80
2012,03,15,05,08,5.90
2012,03,15,05,09,5.90
2012,03,15,05,10,5.90
2012,03,15,05,11,5.90
2012,03,15,05,12,5.90
2012,03,15,05,13,5.90
2012,03,15,05,14,5.90
2012,03,15,05,15,5.90
2012,03,15,05,16,5.90
2012,03,15,05,17,5.90
2012,03,15,05,18,5.90
2012,03,15,05,19,5.90
2012,03,15,05,20,5.90
2012,03,15,05,21,5.90
2012,03,15,05,22,5.90
2012,03,15,05,23,5.90
2012,03,15,05,24,5.90
2012,03,15,05,25,5.90
2012,03,15,05,26,5.90
2012,03,15,05,27,5.90
2012,03,15,05,28,5.90
2012,03,15,05,29,5.90
2012,03,15,05,30,6.00
2012,03,15,05,31,6.00
2012,03,15,05,32,6.00
2012,03,15,05,33,6.00
2012,03,15,05,34,6.00
2012,03,15,05,35,6.00
2012,03,15,05,36,6.10
2012,03,15,05,37,6.10
2012,03,15,05,38,6.10
2012,03,15,05,39,6.10
2012,03,15,05,40,6.10
2012,03,15,05,41,6.10
2012,03,15,05,42,6.10
2012,03,15,05,43,6.20
2012,03,15,05,44,6.20
2012,03,15,05,45,6.20
2012,03,15,05,46,6.20
2012,03,15,05,47,6.20
2012,03,15,05,48,6.20
2012,03,15,05,49,6.20
2012,03,15,05,50,6.30
2012,03,15,05,51,6.30
2012,03,15,05,52,6.30
2012,03,15,05,53,6.30
2012,03,15,05,54,6.30
2012,03,15,05,55,6.40
2012,03,15,05,56,6.40
2012,03,15,05,57,6.40
2012,03,15,05,58,6.40
2012,03,15,05,59,6.40
2012,03,15,06,00,6.40
2012,03,15,06,01,6.40
2012,03,15,06,02,6.50
2012,03,15,06,03,6.50
2012,03,15,06,04,6.50
2012,03,15,06,05,6.50
2012,03,15,06,06,6.50
2012,03,15,06,07,6.50
2012,03,15,06,08,6.50
2012,03,15,06,09,6.50
2012,03,15,06,10,6.50
2012,03,15,06,11,6.50
2012,03,15,06,12,6.40
2012,03,15,06,13,6.40
2012,03,15,06,14,6.40
2012,03,15,06,15,6.40
2012,03,15,06,16,6.40
2012,03,15,06,17,6.50
2012,03,15,06,18,6.50
2012,03,15,06,19,6.50
2012,03,15,06,20,6.50
2012,03,15,06,21,6.60
2012,03,15,06,22,6.60
2012,03,15,06,23,6.60
2012,03,15,06,24,6.60
2012,03,15,06,25,6.60
2012,03,15,06,26,6.60
2012,03,15,06,27,6.60
2012,03,15,06,28,6.60
2012,03,15,06,29,6.60
2012,03,15,06,30,6.50
2012,03,15,06,31,6.50
2012,03,15,06,32,6.50
2012,03,15,06,33,6.50
2012,03,15,06,34,6.60
2012,03,15,06,35,6.50
2012,03,15,06,36,6.50
2012,03,15,06,37,6.50
2012,03,15,06,38,6.50
2012,03,15,06,39,6.50
2012,03,15,06,40,6.50
2012,03,15,06,41,6.50
2012,03,15,06,42,6.50
2012,03,15,06,43,6.50
2012,03,15,06,44,6.60
2012,03,15,06,45,6.60
2012,03,15,06,46,6.60
2012,03,15,06,47,6.60
2012,03,15,06,48,6.60
2012,03,15,06,49,6.60
2012,03,15,06,50,6.60
2012,03,15,06,51,6.60
2012,03,15,06,52,6.60
2012,03,15,06,53,6.60
2012,03,15,06,54,6.60
2012,03,15,06,55,6.70
2012,03,15,06,56,6.70
2012,03,15,06,57,6.70
2012,03,15,06,58,6.70
2012,03,15,06,59,6.70
2012,03,15,07,00,6.70
2012,03,15,07,01,6.70
2012,03,15,07,02,6.70
2012,03,15,07,03,6.70
2012,03,15,07,04,6.70
2012,03,15,07,05,6.70
2012,03,15,07,06,6.70
2012,03,15,07,07,6.70
2012,03,15,07,08,6.70
2012,03,15,07,09,6.70
2012,03,15,07,10,6.70
2012,03,15,07,11,6.70
2012,03,15,07,12,6.70
2012,03,15,07,13,6.70
2012,03,15,07,14,6.70
2012,03,15,07,15,6.70
2012,03,15,07,16,6.70
2012,03,15,07,17,6.70
2012,03,15,07,18,6.70
2012,03,15,07,19,6.70
2012,03,15,07,20,6.70
2012,03,15,07,21,6.70
2012,03,15,07,22,6.70
2012,03,15,07,23,6.70
2012,03,15,07,24,6.60
2012,03,15,07,25,6.60
2012,03,15,07,26,6.70
2012,03,15,07,27,6.60
2012,03,15,07,28,6.60
2012,03,15,07,29,6.60
2012,03,15,07,30,6.60
2012,03,15,07,31,6.60
2012,03,15,07,32,6.60
2012,03,15,07,33,6.60
2012,03,15,07,34,6.60
2012,03,15,07,35,6.60
2012,03,15,07,36,6.60
2012,03,15,07,37,6.60
2012,03,15,07,38,6.60
2012,03,15,07,39,6.60
2012,03,15,07,40,6.50
2012,03,15,07,41,6.50
2012,03,15,07,42,6.50
2012,03,15,07,43,6.50
2012,03,15,07,44,6.50
2012,03,15,07,45,6.50
2012,03,15,07,46,6.50
2012,03,15,07,47,6.50
2012,03,15,07,48,6.50
2012,03,15,07,49,6.50
2012,03,15,07,50,6.50
2012,03,15,07,51,6.50
2012,03,15,07,52,6.60
2012,03,15,07,53,6.60
2012,03,15,07,54,6.60
2012,03,15,07,55,6.60
2012,03,15,07,56,6.60
2012,03,15,07,57,6.50
2012,03,15,07,58,6.50
2012,03,15,07,59,6.50
2012,03,15,08,00,6.50
2012,03,15,08,01,6.50
2012,03,15,08,02,6.50
2012,03,15,08,03,6.50
2012,03,15,08,04,6.50
2012,03,15,08,05,6.50
2012,03,15,08,06,6.40
2012,03,15,08,07,6.40
2012,03,15,08,08,6.40
2012,03,15,08,09,6.40
2012,03,15,08,10,6.40
2012,03,15,08,11,6.50
2012,03,15,08,12,6.50
2012,03,15,08,13,6.50
2012,03,15,08,14,6.50
2012,03,15,08,15,6.50
2012,03,15,08,16,6.50
2012,03,15,08,17,6.50
2012,03,15,08,18,6.50
2012,03,15,08,19,6.50
2012,03,15,08,20,6.50
2012,03,15,08,21,6.50
2012,03,15,08,22,6.50
2012,03,15,08,23,6.50
2012,03,15,08,24,6.50
2012,03,15,08,25,6.50
2012,03,15,08,26,6.50
2012,03,15,08,27,6.40
2012,03,15,08,28,6.40
2012,03,15,08,29,6.40
2012,03,15,08,30,6.40
2012,03,15,08,31,6.40
2012,03,15,08,32,6.50
2012,03,15,08,33,6.40
2012,03,15,08,34,6.40
2012,03,15,08,35,6.40
2012,03,15,08,36,6.40
2012,03,15,08,37,6.40
2012,03,15,08,38,6.40
2012,03,15,08,39,6.40
2012,03,15,08,40,6.40
2012,03,15,08,41,6.40
2012,03,15,08,42,6.40
2012,03,15,08,43,6.40
2012,03,15,08,44,6.40
2012,03,15,08,45,6.40
2012,03,15,08,46,6.30
2012,03,15,08,47,6.30
2012,03,15,08,48,6.30
2012,03,15,08,49,6.30
2012,03,15,08,50,6.30
2012,03,15,08,51,6.40
2012,03,15,08,52,6.40
2012,03,15,08,53,6.40
2012,03,15,08,54,6.40
2012,03,15,08,55,6.40
2012,03,15,08,56,6.40
2012,03,15,08,57,6.40
2012,03,15,08,58,6.40
2012,03,15,08,59,6.40
2012,03,15,09,00,6.40
2012,03,15,09,01,6.40
2012,03,15,09,02,6.40
2012,03,15,09,03,6.40
2012,03,15,09,04,6.40
2012,03,15,09,05,6.40
2012,03,15,09,06,6.40
2012,03,15,09,07,6.40
2012,03,15,09,08,6.40
2012,03,15,09,09,6.40
2012,03,15,09,10,6.40
2012,03,15,09,11,6.40
2012,03,15,09,12,6.40
2012,03,15,09,13,6.40
2012,03,15,09,14,6.50
2012,03,15,09,15,6.50
2012,03,15,09,16,6.60
2012,03,15,09,17,6.60
2012,03,15,09,18,6.70
2012,03,15,09,19,6.70
2012,03,15,09,20,6.70
2012,03,15,09,21,6.80
2012,03,15,09,22,6.80
2012,03,15,09,23,6.90
2012,03,15,09,24,6.90
2012,03,15,09,25,6.90
2012,03,15,09,26,7.00
2012,03,15,09,27,7.00
2012,03,15,09,28,7.00
2012,03,15,09,29,7.10
2012,03,15,09,30,7.20
2012,03,15,09,31,7.20
2012,03,15,09,32,7.20
2012,03,15,09,33,7.30
2012,03,15,09,34,7.40
2012,03,15,09,35,7.40
2012,03,15,09,36,7.50
2012,03,15,09,37,7.50
2012,03,15,09,38,7.50
2012,03,15,09,39,7.40
2012,03,15,09,40,7.40
2012,03,15,09,41,7.30
2012,03,15,09,42,7.30
2012,03,15,09,43,7.20
2012,03,15,09,44,7.20
2012,03,15,09,45,7.20
2012,03,15,09,46,7.20
2012,03,15,09,47,7.10
2012,03,15,09,48,7.10
2012,03,15,09,49,7.10
2012,03,15,09,50,7.10
2012,03,15,09,51,7.10
2012,03,15,09,52,7.10
2012,03,15,09,53,7.10
2012,03,15,09,54,7.10
2012,03,15,09,55,7.20
2012,03,15,09,56,7.20
2012,03,15,09,57,7.20
2012,03,15,09,58,7.20
2012,03,15,09,59,7.20
2012,03,15,10,00,7.30
2012,03,15,10,01,7.30
2012,03,15,10,02,7.40
2012,03,15,10,03,7.40
2012,03,15,10,04,7.40
2012,03,15,10,05,7.50
2012,03,15,10,06,7.50
2012,03,15,10,07,7.60
2012,03,15,10,08,7.60
2012,03,15,10,09,7.70
2012,03,15,10,10,7.80
2012,03,15,10,11,7.80
2012,03,15,10,12,7.80
2012,03,15,10,13,7.70
2012,03,15,10,14,7.70
2012,03,15,10,15,7.70
2012,03,15,10,16,7.70
2012,03,15,10,17,7.60
2012,03,15,10,18,7.60
2012,03,15,10,19,7.50
2012,03,15,10,20,7.50
2012,03,15,10,21,7.50
2012,03,15,10,22,7.50
2012,03,15,10,23,7.50
2012,03,15,10,24,7.50
2012,03,15,10,25,7.50
2012,03,15,10,26,7.60
2012,03,15,10,27,7.60
2012,03,15,10,28,7.70
2012,03,15,10,29,7.70
2012,03,15,10,30,7.80
2012,03,15,10,31,7.80
2012,03,15,10,32,7.80
2012,03,15,10,33,8.00
2012,03,15,10,34,8.10
2012,03,15,10,35,8.20
2012,03,15,10,36,8.30
2012,03,15,10,37,8.30
2012,03,15,10,38,8.30
2012,03,15,10,39,8.30
2012,03,15,10,40,8.30
2012,03,15,10,41,8.40
2012,03,15,10,42,8.40
2012,03,15,10,43,8.50
2012,03,15,10,44,8.50
2012,03,15,10,45,8.60
2012,03,15,10,46,8.70
2012,03,15,10,47,8.80
2012,03,15,10,48,8.80
2012,03,15,10,49,8.90
2012,03,15,10,50,8.90
2012,03,15,10,51,8.90
2012,03,15,10,52,8.90
2012,03,15,10,53,8.90
2012,03,15,10,54,8.90
2012,03,15,10,55,8.90
2012,03,15,10,56,8.80
2012,03,15,10,57,8.80
2012,03,15,10,58,8.70
2012,03,15,10,59,8.70
2012,03,15,11,00,8.70
2012,03,15,11,01,8.70
2012,03,15,11,02,8.60
2012,03,15,11,03,8.60
2012,03,15,11,04,8.60
2012,03,15,11,05,8.60
2012,03,15,11,06,8.60
2012,03,15,11,07,8.60
2012,03,15,11,08,8.60
2012,03,15,11,09,8.70
2012,03,15,11,10,8.80
2012,03,15,11,11,8.90
2012,03,15,11,12,8.90
2012,03,15,11,13,9.00
2012,03,15,11,14,9.00
2012,03,15,11,15,9.10
2012,03,15,11,16,9.10
2012,03,15,11,17,9.20
2012,03,15,11,18,9.30
2012,03,15,11,19,9.50
2012,03,15,11,20,9.50
2012,03,15,11,21,9.60
2012,03,15,11,22,9.70
2012,03,15,11,23,9.70
2012,03,15,11,24,9.70
2012,03,15,11,25,9.70
2012,03,15,11,26,9.60
2012,03,15,11,27,9.60
2012,03,15,11,28,9.60
2012,03,15,11,29,9.50
2012,03,15,11,30,9.50
2012,03,15,11,31,9.50
2012,03,15,11,32,9.40
2012,03,15,11,33,9.40
2012,03,15,11,34,9.40
2012,03,15,11,35,9.40
2012,03,15,11,36,9.40
2012,03,15,11,37,9.40
2012,03,15,11,38,9.40
2012,03,15,11,39,9.50
2012,03,15,11,40,9.50
2012,03,15,11,41,9.60
2012,03,15,11,42,9.60
2012,03,15,11,43,9.70
2012,03,15,11,44,9.80
2012,03,15,11,45,9.90
2012,03,15,11,46,10.00
2012,03,15,11,47,10.00
2012,03,15,11,48,10.10
2012,03,15,11,49,10.20
2012,03,15,11,50,10.30
2012,03,15,11,51,10.40
2012,03,15,11,52,10.50
2012,03,15,11,53,10.50
2012,03,15,11,54,10.60
2012,03,15,11,55,10.70
2012,03,15,11,56,10.70
2012,03,15,11,57,10.80
2012,03,15,11,58,10.90
2012,03,15,11,59,10.80
2012,03,15,12,00,10.80
2012,03,15,12,01,10.80
2012,03,15,12,02,10.80
2012,03,15,12,03,10.70
2012,03,15,12,04,10.70
2012,03,15,12,05,10.70
2012,03,15,12,06,10.70
2012,03,15,12,07,10.70
2012,03,15,12,08,10.60
2012,03,15,12,09,10.60
2012,03,15,12,10,10.60
2012,03,15,12,11,10.50
2012,03,15,12,12,10.50
2012,03,15,12,13,10.40
2012,03,15,12,14,10.30
2012,03,15,12,15,10.20
2012,03,15,12,16,10.20
2012,03,15,12,17,10.10
2012,03,15,12,18,9.90
2012,03,15,12,19,9.80
2012,03,15,12,20,9.80
2012,03,15,12,21,9.70
2012,03,15,12,22,9.70
2012,03,15,12,23,9.60
2012,03,15,12,24,9.60
2012,03,15,12,25,9.50
2012,03,15,12,26,9.40
2012,03,15,12,27,9.40
2012,03,15,12,28,9.30
2012,03,15,12,29,9.10
2012,03,15,12,30,9.00
2012,03,15,12,31,8.90
2012,03,15,12,32,8.80
2012,03,15,12,33,8.70
2012,03,15,12,34,8.50
2012,03,15,12,35,8.40
2012,03,15,12,36,8.30
2012,03,15,12,37,8.20
2012,03,15,12,38,8.10
2012,03,15,12,39,8.00
2012,03,15,12,40,8.00
2012,03,15,12,41,7.90
2012,03,15,12,42,7.90
2012,03,15,12,43,7.80
2012,03,15,12,44,7.80
2012,03,15,12,45,7.70
2012,03,15,12,46,7.70
2012,03,15,12,47,7.70
2012,03,15,12,48,7.70
2012,03,15,12,49,7.70
2012,03,15,12,50,7.70
2012,03,15,12,51,7.70
2012,03,15,12,52,7.70
2012,03,15,12,53,7.70
2012,03,15,12,54,7.70
2012,03,15,12,55,7.70
2012,03,15,12,56,7.80
2012,03,15,12,57,7.80
2012,03,15,12,58,8.00
2012,03,15,12,59,8.10
2012,03,15,13,00,8.10
2012,03,15,13,01,8.20
2012,03,15,13,02,8.30
2012,03,15,13,03,8.30
2012,03,15,13,04,8.30
2012,03,15,13,05,8.30
2012,03,15,13,06,8.30
2012,03,15,13,07,8.30
2012,03,15,13,08,8.30
2012,03,15,13,09,8.30
2012,03,15,13,10,8.30
2012,03,15,13,11,8.30
2012,03,15,13,12,8.30
2012,03,15,13,13,8.30
2012,03,15,13,14,8.30
2012,03,15,13,15,8.30
2012,03,15,13,16,8.20
2012,03,15,13,17,8.20
2012,03,15,13,18,8.20
2012,03,15,13,19,8.20
2012,03,15,13,20,8.20
2012,03,15,13,21,8.10
2012,03,15,13,22,8.10
2012,03,15,13,23,8.10
2012,03,15,13,24,8.00
2012,03,15,13,25,8.00
2012,03,15,13,26,8.00
2012,03,15,13,27,8.00
2012,03,15,13,28,8.00
2012,03,15,13,29,8.00
2012,03,15,13,30,8.00
2012,03,15,13,31,7.90
2012,03,15,13,32,7.90
2012,03,15,13,33,7.90
2012,03,15,13,34,7.90
2012,03,15,13,35,7.90
2012,03,15,13,36,7.90
2012,03,15,13,37,7.90
2012,03,15,13,38,7.90
2012,03,15,13,39,7.90
2012,03,15,13,40,7.90
2012,03,15,13,41,7.90
2012,03,15,13,42,8.00
2012,03,15,13,43,8.10
2012,03,15,13,44,8.10
2012,03,15,13,45,8.20
2012,03,15,13,46,8.30
2012,03,15,13,47,8.30
2012,03,15,13,48,8.40
2012,03,15,13,49,8.40
2012,03,15,13,50,8.40
2012,03,15,13,51,8.50
2012,03,15,13,52,8.50
2012,03,15,13,53,8.60
2012,03,15,13,54,8.70
2012,03,15,13,55,8.80
2012,03,15,13,56,8.80
2012,03,15,13,57,8.90
2012,03,15,13,58,8.90
2012,03,15,13,59,9.00
2012,03,15,14,00,9.10
2012,03,15,14,01,9.20
2012,03,15,14,02,9.30
2012,03,15,14,03,9.40
2012,03,15,14,04,9.40
2012,03,15,14,05,9.40
2012,03,15,14,06,9.50
2012,03,15,14,07,9.60
2012,03,15,14,08,9.60
2012,03,15,14,09,9.60
2012,03,15,14,10,9.70
2012,03,15,14,11,9.80
2012,03,15,14,12,9.90
2012,03,15,14,13,10.10
2012,03,15,14,14,10.20
2012,03,15,14,15,10.30
2012,03,15,14,16,10.40
2012,03,15,14,17,10.40
2012,03,15,14,18,10.40
2012,03,15,14,19,10.40
2012,03,15,14,20,10.30
2012,03,15,14,21,10.30
2012,03,15,14,22,10.20
2012,03,15,14,23,10.10
2012,03,15,14,24,10.10
2012,03,15,14,25,10.10
2012,03,15,14,26,10.10
2012,03,15,14,27,10.10
2012,03,15,14,28,10.20
2012,03,15,14,29,10.20
2012,03,15,14,30,10.20
2012,03,15,14,31,10.30
2012,03,15,14,32,10.30
2012,03,15,14,33,10.40
2012,03,15,14,34,10.40
2012,03,15,14,35,10.30
2012,03,15,14,36,10.20
2012,03,15,14,37,10.10
2012,03,15,14,38,10.00
2012,03,15,14,39,10.00
2012,03,15,14,40,9.90
2012,03,15,14,41,9.90
2012,03,15,14,42,9.90
2012,03,15,14,43,10.00
2012,03,15,14,44,10.00
2012,03,15,14,45,10.00
2012,03,15,14,46,10.00
2012,03,15,14,47,10.10
2012,03,15,14,48,10.10
2012,03,15,14,49,10.10
2012,03,15,14,50,10.10
2012,03,15,14,51,10.10
2012,03,15,14,52,10.10
2012,03,15,14,53,10.10
2012,03,15,14,54,10.10
2012,03,15,14,55,10.00
2012,03,15,14,56,9.90
2012,03,15,14,57,9.90
2012,03,15,14,58,9.90
2012,03,15,14,59,9.90
2012,03,15,15,00,9.90
2012,03,15,15,01,9.90
2012,03,15,15,02,9.90
2012,03,15,15,03,9.90
2012,03,15,15,04,9.90
2012,03,15,15,05,9.90
2012,03,15,15,06,9.90
2012,03,15,15,07,9.90
2012,03,15,15,08,9.90
2012,03,15,15,09,9.90
2012,03,15,15,10,9.90
2012,03,15,15,11,9.80
2012,03,15,15,12,9.80
2012,03,15,15,13,9.80
2012,03,15,15,14,9.80
2012,03,15,15,15,9.80
2012,03,15,15,16,9.80
2012,03,15,15,17,9.80
2012,03,15,15,18,9.70
2012,03,15,15,19,9.70
2012,03,15,15,20,9.60
2012,03,15,15,21,9.60
2012,03,15,15,22,9.50
2012,03,15,15,23,9.50
2012,03,15,15,24,9.50
2012,03,15,15,25,9.50
2012,03,15,15,26,9.50
2012,03,15,15,27,9.50
2012,03,15,15,28,9.40
2012,03,15,15,29,9.40
2012,03,15,15,30,9.40
2012,03,15,15,31,9.40
2012,03,15,15,32,9.30
2012,03,15,15,33,9.30
2012,03,15,15,34,9.30
2012,03,15,15,35,9.30
2012,03,15,15,36,9.40
2012,03,15,15,37,9.40
2012,03,15,15,38,9.30
2012,03,15,15,39,9.30
2012,03,15,15,40,9.30
2012,03,15,15,41,9.30
2012,03,15,15,42,9.20
2012,03,15,15,43,9.30
2012,03,15,15,44,9.30
2012,03,15,15,45,9.30
2012,03,15,15,46,9.40
2012,03,15,15,47,9.30
2012,03,15,15,48,9.40
2012,03,15,15,49,9.30
2012,03,15,15,50,9.40
2012,03,15,15,51,9.40
2012,03,15,15,52,9.30
2012,03,15,15,53,9.30
2012,03,15,15,54,9.30
2012,03,15,15,55,9.30
2012,03,15,15,56,9.20
2012,03,15,15,57,9.10
2012,03,15,15,58,9.10
2012,03,15,15,59,9.10
2012,03,15,16,00,9.00
2012,03,15,16,01,9.00
2012,03,15,16,02,8.90
2012,03,15,16,03,8.90
2012,03,15,16,04,9.00
2012,03,15,16,05,9.00
2012,03,15,16,06,9.00
2012,03,15,16,07,8.90
2012,03,15,16,08,8.90
2012,03,15,16,09,8.90
2012,03,15,16,10,9.00
2012,03,15,16,11,9.10
2012,03,15,16,12,9.10
2012,03,15,16,13,9.10
2012,03,15,16,14,9.10
2012,03,15,16,15,9.00
2012,03,15,16,16,8.90
2012,03,15,16,17,8.90
2012,03,15,16,18,8.90
2012,03,15,16,19,8.80
2012,03,15,16,20,8.90
2012,03,15,16,21,8.90
2012,03,15,16,22,8.80
2012,03,15,16,23,8.80
2012,03,15,16,24,8.80
2012,03,15,16,25,8.70
2012,03,15,16,26,8.70
2012,03,15,16,27,8.70
2012,03,15,16,28,8.60
2012,03,15,16,29,8.60
2012,03,15,16,30,8.60
2012,03,15,16,31,8.60
2012,03,15,16,32,8.60
2012,03,15,16,33,8.50
2012,03,15,16,34,8.50
2012,03,15,16,35,8.40
2012,03,15,16,36,8.30
2012,03,15,16,37,8.20
2012,03,15,16,38,8.20
2012,03,15,16,39,8.20
2012,03,15,16,40,8.10
2012,03,15,16,41,8.00
2012,03,15,16,42,8.00
2012,03,15,16,43,7.90
2012,03,15,16,44,7.90
2012,03,15,16,45,7.90
2012,03,15,16,46,7.80
2012,03,15,16,47,7.80
2012,03,15,16,48,7.70
2012,03,15,16,49,7.70
2012,03,15,16,50,7.70
2012,03,15,16,51,7.70
2012,03,15,16,52,7.70
2012,03,15,16,53,7.70
2012,03,15,16,54,7.70
2012,03,15,16,55,7.70
2012,03,15,16,56,7.70
2012,03,15,16,57,7.70
2012,03,15,16,58,7.80
2012,03,15,16,59,7.80
2012,03,15,17,00,7.80
2012,03,15,17,01,7.80
2012,03,15,17,02,7.80
2012,03,15,17,03,7.80
2012,03,15,17,04,7.90
2012,03,15,17,05,7.90
2012,03,15,17,06,7.90
2012,03,15,17,07,7.90
2012,03,15,17,08,7.90
2012,03,15,17,09,8.00
2012,03,15,17,10,8.00
2012,03,15,17,11,8.00
2012,03,15,17,12,8.00
2012,03,15,17,13,8.00
2012,03,15,17,14,8.00
2012,03,15,17,15,7.90
2012,03,15,17,16,7.80
2012,03,15,17,17,7.90
2012,03,15,17,18,7.90
2012,03,15,17,19,8.00
2012,03,15,17,20,8.10
2012,03,15,17,21,8.10
2012,03,15,17,22,8.20
2012,03,15,17,23,8.20
2012,03,15,17,24,8.30
2012,03,15,17,25,8.30
2012,03,15,17,26,8.30
2012,03,15,17,27,8.30
2012,03,15,17,28,8.30
2012,03,15,17,29,8.40
2012,03,15,17,30,8.50
2012,03,15,17,31,8.60
2012,03,15,17,32,8.70
2012,03,15,17,33,8.80
2012,03,15,17,34,8.70
2012,03,15,17,35,8.60
2012,03,15,17,36,8.50
2012,03,15,17,37,8.60
2012,03,15,17,38,8.60
2012,03,15,17,39,8.60
2012,03,15,17,40,8.50
2012,03,15,17,41,8.40
2012,03,15,17,42,8.30
2012,03,15,17,43,8.20
2012,03,15,17,44,8.10
2012,03,15,17,45,8.00
2012,03,15,17,46,7.90
2012,03,15,17,47,7.90
2012,03,15,17,48,7.90
2012,03,15,17,49,7.90
2012,03,15,17,50,7.90
2012,03,15,17,51,7.80
2012,03,15,17,52,7.80
2012,03,15,17,53,7.80
2012,03,15,17,54,7.80
2012,03,15,17,55,7.80
2012,03,15,17,56,7.80
2012,03,15,17,57,7.70
2012,03,15,17,58,7.80
2012,03,15,17,59,7.80
2012,03,15,18,00,7.80
2012,03,15,18,01,7.80
2012,03,15,18,02,7.80
2012,03,15,18,03,7.80